Starlink 30564

operational
NORAD ID: 58043 Int'l Des: 2023-156 Owner: SPXS Country: US Constellation: starlink
LEOCIRCULAR

Über Starlink 30564

Beschreibung wird geladen...

Live-Position

3D-Globus wird geladen...

Nächste Überflüge

Höhenverlauf

Altitude vs Time

uPlot chart will show altitude changes over time

Zweizeiliger Elementsatz

1 58043U 23156R 25353.55961425 -.00018924 00000-0 -62900-3 0 9998
2 58043 53.1593 90.6858 0001434 87.5085 272.6080 15.30169972124048
Epoch: 19. Dez. 2025 • Age: 12 hours

Aktueller Status

Höhe 491.8 km
Geschwindigkeit 7.62 km/s
Subsatellitenpunkt -45.94°S, 76.35°W
Startdatum 9. Okt. 2023
Alter 2.1 years
Typ internet

Technische Details

Klassifizierung Payload
Masse 730.00 kg
Trockenmasse 700.00 kg
Gesamtmasse 730.00 kg
Länge 0.30 m
Durchmesser 4.10 m
Spannweite 29.00 m
Form Box + pan
Hersteller SPXS
Bus-Typ Starlink V2M
Phasenstatus In Orbit
Besitzer/Staat SPXS/US

Große Konstellationen

Loading constellations...